Date,TemperatureHighF,TemperatureAvgF,TemperatureLowF,DewpointHighF,DewpointAvgF,DewpointLowF,HumidityHigh,HumidityAvg,HumidityLow,PressureMaxIn,PressureMinIn,WindSpeedMaxMPH,WindSpeedAvgMPH,GustSpeedMaxMPH,PrecipitationSumIn
2013-9-1,76,66,62,72,64,-100,99,94,83,29.91,29.74,8,3,17,0.16
2013-9-2,67,60,57,67,59,-100,99,98,98,29.93,29.72,14,7,29,0.64
2013-9-3,71,66,62,70,66,62,100,98,94,29.74,29.67,11,4,19,0.38
2013-9-4,72,64,58,64,61,57,99,90,72,29.85,29.69,11,4,18,0.03
2013-9-5,66,59,54,59,54,45,97,85,53,30.10,29.83,11,4,15,0.12
2013-9-6,63,55,44,53,48,42,97,77,56,30.18,30.02,9,4,17,0.02
2013-9-7,65,60,57,59,56,53,94,87,77,30.03,29.76,11,6,24,0.00
2013-9-8,65,58,51,60,52,-100,98,86,67,30.02,29.67,7,1,14,0.65
2013-9-9,60,56,48,55,47,42,92,74,56,30.17,30.01,10,5,21,0.07
2013-9-10,64,60,56,61,58,55,98,93,87,30.11,30.03,9,2,17,0.00
2013-9-11,73,65,60,69,64,59,99,96,87,30.05,29.88,10,2,16,0.03
2013-9-12,72,65,61,69,64,60,99,97,89,29.98,29.65,11,5,25,0.35
2013-9-13,65,62,59,65,62,58,100,99,98,29.66,29.55,14,2,24,0.34
2013-9-14,68,60,56,61,58,54,98,91,78,29.97,29.63,10,3,15,0.04
2013-9-15,62,55,48,56,51,-100,98,89,78,30.09,29.97,10,4,19,0.00
2013-9-16,63,57,49,56,53,40,98,87,69,30.20,29.93,20,6,29,0.02
2013-9-17,62,51,44,50,43,38,95,76,55,30.35,30.20,21,8,28,0.01
2013-9-18,60,48,44,52,46,43,98,95,75,30.27,30.06,7,1,15,0.01
2013-9-19,69,59,49,55,52,47,97,79,56,30.09,29.99,9,3,17,0.01
2013-9-20,73,60,51,58,54,48,97,80,55,30.08,30.00,6,2,12,0.00
2013-9-21,64,60,56,60,58,55,98,93,84,30.03,29.78,13,8,24,0.00
2013-9-22,66,61,55,64,58,-100,98,94,88,29.79,29.59,15,6,30,0.43
2013-9-23,58,53,47,52,46,42,93,79,68,29.88,29.68,22,4,30,0.03
2013-9-24,52,51,48,47,44,42,84,77,72,29.87,29.78,19,10,28,0.02
2013-9-25,58,54,50,51,48,46,89,81,70,29.93,29.80,17,10,22,0.01
2013-9-26,62,56,51,52,50,48,89,82,68,30.08,29.92,16,9,20,0.00
2013-9-27,72,59,52,57,53,50,95,81,53,30.21,30.08,11,4,16,0.00
2013-9-28,69,56,46,56,52,45,98,86,61,30.32,30.21,6,2,9,0.01
2013-9-29,62,51,43,56,48,-100,99,92,81,30.25,30.10,5,1,9,0.02
2013-9-30,65,54,46,56,51,45,99,89,62,30.12,29.95,7,1,10,0.01